Location: Joffre
(52.3362°N, 113.5373°W)
Time: 11:38:19
(UTC+00:00)

Envisat - Pass Details

Date: 01 December 2021
Orbit: 764 x 766 km, 98.2° (Epoch: 23 January)

Event Time Altitude Azimuth Distance (km) Brightness Sun altitude
Rises 14:01:32 0° 8° (N) 3,248 6.1 -11.6°
Reaches altitude 10° 14:04:07 10° 357° (N) 2,317 5.3 -11.2°
Maximum altitude 14:08:24 28° 300° (WNW) 1,404 3.8 -10.6°
Drops below altitude 10° 14:12:42 10° 242° (WSW) 2,304 5.1 -10.0°
Sets 14:15:15 0° 231° (SW) 3,225 6.0 -9.7°
